TimeCST,TemperatureF,Dew PointF,Humidity,Sea Level PressureIn,VisibilityMPH,Wind Direction,Wind SpeedMPH,Gust SpeedMPH,PrecipitationIn,Events,Conditions,WindDirDegrees,DateUTC
12:13 AM,6.8,-0.4,72,29.66,0.8,SW,3.5,-,0.01,Snow,Snow,220,2013-02-05 06:13:00
12:33 AM,6.8,-0.4,72,29.65,0.8,Calm,Calm,-,0.01,Snow,Snow,0,2013-02-05 06:33:00
12:53 AM,8.6,1.4,73,29.64,0.5,Calm,Calm,-,N/A,Snow,Heavy Snow,0,2013-02-05 06:53:00
1:14 AM,8.6,-0.4,67,29.63,0.8,Calm,Calm,-,N/A,Snow,Snow,0,2013-02-05 07:14:00
1:33 AM,8.6,1.4,73,29.62,1.2,Calm,Calm,-,N/A,Snow,Light Snow,0,2013-02-05 07:33:00
1:53 AM,8.6,1.4,73,29.61,0.8,Calm,Calm,-,0.01,Snow,Snow,0,2013-02-05 07:53:00
2:13 AM,8.6,1.4,73,29.61,1.0,Calm,Calm,-,0.03,Snow,Snow,0,2013-02-05 08:13:00
2:34 AM,8.6,1.4,73,29.60,1.2,Calm,Calm,-,0.04,Snow,Snow,0,2013-02-05 08:34:00
2:53 AM,8.6,1.4,73,29.59,1.5,Calm,Calm,-,N/A,Snow,Light Snow,0,2013-02-05 08:53:00
3:13 AM,8.6,1.4,73,29.58,1.5,Calm,Calm,-,0.01,Snow,Light Snow,0,2013-02-05 09:13:00
3:33 AM,8.6,1.4,73,29.58,3.0,Calm,Calm,-,0.02,Snow,Light Snow,0,2013-02-05 09:33:00
3:53 AM,8.6,3.2,79,29.58,4.0,Calm,Calm,-,N/A,Snow,Light Snow,0,2013-02-05 09:53:00
4:13 AM,10.4,3.2,73,29.57,4.0,Calm,Calm,-,N/A,Snow,Light Snow,0,2013-02-05 10:13:00
4:33 AM,10.4,3.2,73,29.58,2.5,Calm,Calm,-,N/A,Snow,Light Snow,0,2013-02-05 10:33:00
4:53 AM,10.4,3.2,73,29.58,3.0,Calm,Calm,-,N/A,Snow,Light Snow,0,2013-02-05 10:53:00
5:13 AM,10.4,3.2,73,29.58,3.0,Calm,Calm,-,N/A,Snow,Light Snow,0,2013-02-05 11:13:00
5:33 AM,8.6,3.2,79,29.58,3.0,Calm,Calm,-,N/A,Snow,Light Snow,0,2013-02-05 11:33:00
5:53 AM,8.6,1.4,73,29.59,3.0,Calm,Calm,-,N/A,Snow,Light Snow,0,2013-02-05 11:53:00
6:13 AM,8.6,1.4,73,29.60,7.0,Calm,Calm,-,N/A,Snow,Light Snow,0,2013-02-05 12:13:00
6:33 AM,8.6,3.2,79,29.60,10.0,Calm,Calm,-,0.01,,Overcast,0,2013-02-05 12:33:00
6:53 AM,8.6,1.4,73,29.61,10.0,Calm,Calm,-,N/A,,Overcast,0,2013-02-05 12:53:00
7:13 AM,8.6,1.4,73,29.62,10.0,Calm,Calm,-,N/A,Snow,Light Snow,0,2013-02-05 13:13:00
7:33 AM,8.6,-0.4,67,29.63,10.0,NNW,4.6,-,N/A,Snow,Light Snow,340,2013-02-05 13:33:00
7:53 AM,8.6,-0.4,67,29.65,10.0,Calm,Calm,-,N/A,,Clear,0,2013-02-05 13:53:00
8:13 AM,8.6,-0.4,67,29.66,10.0,North,6.9,-,N/A,,Clear,350,2013-02-05 14:13:00
8:34 AM,10.4,-0.4,62,29.67,10.0,North,4.6,-,N/A,,Clear,360,2013-02-05 14:34:00
9:13 AM,12.2,-0.4,57,29.69,10.0,North,9.2,-,N/A,,Clear,360,2013-02-05 15:13:00
9:33 AM,12.2,-0.4,57,29.70,3.0,North,10.4,16.1,N/A,Snow,Light Snow,350,2013-02-05 15:33:00
9:53 AM,14.0,-0.4,53,29.71,7.0,North,5.8,-,N/A,Snow,Light Snow,350,2013-02-05 15:53:00
10:13 AM,15.8,-0.4,49,29.73,10.0,North,6.9,-,N/A,,Clear,10,2013-02-05 16:13:00
10:33 AM,17.6,-0.4,45,29.74,7.0,North,3.5,-,N/A,,Clear,10,2013-02-05 16:33:00
10:53 AM,19.4,-0.4,42,29.75,10.0,North,8.1,-,N/A,,Clear,10,2013-02-05 16:53:00
11:13 AM,19.4,1.4,46,29.76,10.0,Calm,Calm,-,N/A,Snow,Light Snow,0,2013-02-05 17:13:00
11:33 AM,21.2,1.4,42,29.76,10.0,NW,4.6,-,N/A,,Clear,320,2013-02-05 17:33:00
11:53 AM,21.2,-0.4,39,29.77,3.0,NNW,9.2,17.3,N/A,Snow,Light Snow,340,2013-02-05 17:53:00
12:13 PM,21.2,-0.4,39,29.78,4.0,North,6.9,17.3,N/A,Snow,Light Snow,350,2013-02-05 18:13:00
12:33 PM,21.2,1.4,42,29.79,10.0,NNW,6.9,-,N/A,Snow,Light Snow,340,2013-02-05 18:33:00
12:53 PM,21.2,-0.4,39,29.80,10.0,North,8.1,17.3,N/A,Snow,Light Snow,350,2013-02-05 18:53:00
1:13 PM,21.2,-0.4,39,29.80,10.0,NW,8.1,-,N/A,,Clear,310,2013-02-05 19:13:00
1:34 PM,21.2,-0.4,39,29.81,10.0,NW,8.1,16.1,N/A,Snow,Light Snow,310,2013-02-05 19:34:00
1:53 PM,21.2,-2.2,36,29.82,10.0,NNW,8.1,-,N/A,Snow,Light Snow,340,2013-02-05 19:53:00
2:13 PM,21.2,-2.2,36,29.82,10.0,NNW,3.5,-,N/A,,Clear,340,2013-02-05 20:13:00
2:33 PM,21.2,-4.0,33,29.83,10.0,NW,5.8,-,N/A,,Clear,320,2013-02-05 20:33:00
2:53 PM,21.2,-5.8,30,29.84,10.0,North,9.2,-,N/A,,Clear,350,2013-02-05 20:53:00
3:13 PM,19.4,-7.6,30,29.85,10.0,NNW,8.1,-,N/A,,Clear,330,2013-02-05 21:13:00
3:33 PM,19.4,-5.8,33,29.85,10.0,NW,5.8,-,N/A,,Clear,310,2013-02-05 21:33:00
3:53 PM,19.4,-5.8,33,29.86,10.0,WNW,3.5,-,N/A,,Clear,300,2013-02-05 21:53:00
4:13 PM,19.4,-4.0,36,29.88,10.0,West,3.5,-,N/A,,Clear,280,2013-02-05 22:13:00
4:33 PM,17.6,-5.8,35,29.89,10.0,NW,3.5,-,N/A,,Clear,310,2013-02-05 22:33:00
4:53 PM,15.8,-7.6,35,29.90,10.0,NW,5.8,-,N/A,,Clear,320,2013-02-05 22:53:00
5:13 PM,12.2,-7.6,41,29.91,10.0,NW,6.9,-,N/A,,Clear,320,2013-02-05 23:13:00
5:53 PM,10.4,-5.8,48,29.92,10.0,NW,5.8,-,N/A,,Clear,320,2013-02-05 23:53:00
6:13 PM,10.4,-5.8,48,29.91,10.0,NNW,4.6,-,N/A,,Clear,330,2013-02-06 00:13:00
6:33 PM,10.4,-5.8,48,29.92,10.0,NNW,5.8,-,N/A,,Clear,330,2013-02-06 00:33:00
6:53 PM,8.6,-5.8,52,29.93,10.0,NNW,4.6,-,N/A,,Clear,330,2013-02-06 00:53:00
7:13 PM,8.6,-9.4,44,29.93,10.0,North,5.8,-,N/A,,Clear,350,2013-02-06 01:13:00
7:54 PM,8.6,-11.2,40,29.94,10.0,Calm,Calm,-,N/A,,Mostly Cloudy,0,2013-02-06 01:54:00
8:13 PM,8.6,-13.0,37,29.95,10.0,Calm,Calm,-,N/A,,Overcast,0,2013-02-06 02:13:00
8:33 PM,6.8,-11.2,44,29.95,10.0,Calm,Calm,-,N/A,,Overcast,0,2013-02-06 02:33:00
8:53 PM,6.8,-11.2,44,29.96,10.0,Calm,Calm,-,N/A,,Overcast,0,2013-02-06 02:53:00
9:13 PM,5.0,-9.4,52,29.97,10.0,Calm,Calm,-,N/A,,Overcast,0,2013-02-06 03:13:00
9:33 PM,6.8,-9.4,48,29.98,10.0,Calm,Calm,-,N/A,,Overcast,0,2013-02-06 03:33:00
9:53 PM,6.8,-9.4,48,29.98,10.0,Calm,Calm,-,N/A,,Overcast,0,2013-02-06 03:53:00
10:13 PM,5.0,-9.4,52,29.98,10.0,Calm,Calm,-,N/A,,Overcast,0,2013-02-06 04:13:00
10:33 PM,3.2,-9.4,56,29.99,10.0,Calm,Calm,-,N/A,,Scattered Clouds,0,2013-02-06 04:33:00
10:53 PM,1.4,-9.4,61,29.99,10.0,Calm,Calm,-,N/A,,Clear,0,2013-02-06 04:53:00
11:13 PM,-0.4,-11.2,60,30.00,10.0,Calm,Calm,-,N/A,,Scattered Clouds,0,2013-02-06 05:13:00
11:33 PM,1.4,-9.4,61,30.00,10.0,Calm,Calm,-,N/A,,Mostly Cloudy,0,2013-02-06 05:33:00
11:53 PM,1.4,-9.4,61,30.02,10.0,Calm,Calm,-,N/A,,Overcast,0,2013-02-06 05:53:00